| time (UTC) | temp C | wind direction | speed KPH | gust KPH | rain 1hr cm | rain 24hr cm | rain mn cm | humidity % | barometer mb |
| 20260504130519 | 13 | 187 | 6.4 | 12.9 | 0.00 | 0.03 | 0.00 | 52 | 1014.7 |
| 20260504110557 | 11 | 181 | 9.7 | 16.1 | 0.00 | 0.03 | 0.00 | 58 | 1015.2 |
| 20260504100538 | 11 | 175 | 9.7 | 16.1 | 0.00 | 0.03 | 0.00 | 57 | 1015.1 |
| 20260504081519 | 11 | 272 | 1.6 | 4.8 | 0.00 | 0.03 | 0.00 | 56 | 1015.5 |
| 20260504080539 | 11 | 326 | 0.0 | 1.6 | 0.00 | 0.03 | 0.00 | 59 | 1015.4 |
| 20260504050519 | 11 | 191 | 1.6 | 4.8 | 0.00 | 0.03 | 0.00 | 53 | 1015.7 |
| 20260504045540 | 11 | 193 | 3.2 | 4.8 | 0.00 | 0.03 | 0.00 | 53 | 1015.6 |
| 20260504044519 | 11 | 195 | 3.2 | 6.4 | 0.00 | 0.03 | 0.00 | 52 | 1015.7 |
| 20260504043540 | 11 | 188 | 3.2 | 4.8 | 0.00 | 0.03 | 0.00 | 52 | 1015.7 |
| 20260504042521 | 11 | 186 | 3.2 | 6.4 | 0.00 | 0.03 | 0.00 | 51 | 1015.7 |
| 20260504041517 | 11 | 187 | 3.2 | 4.8 | 0.00 | 0.03 | 0.00 | 51 | 1015.6 |
| 20260504040517 | 11 | 171 | 6.4 | 9.7 | 0.00 | 0.03 | 0.00 | 49 | 1015.6 |
| 20260504035540 | 11 | 176 | 6.4 | 8.0 | 0.00 | 0.03 | 0.03 | 50 | 1015.7 |
| 20260504034541 | 11 | 184 | 6.4 | 8.0 | 0.00 | 0.03 | 0.03 | 51 | 1015.6 |
| 20260504033517 | 11 | 172 | 8.0 | 12.9 | 0.00 | 0.03 | 0.03 | 48 | 1015.5 |
| 20260504032518 | 11 | 171 | 8.0 | 12.9 | 0.00 | 0.03 | 0.03 | 51 | 1015.4 |
| 20260504031518 | 11 | 184 | 4.8 | 9.7 | 0.00 | 0.03 | 0.03 | 51 | 1015.4 |
| 20260504030518 | 11 | 188 | 1.6 | 6.4 | 0.00 | 0.03 | 0.03 | 49 | 1015.3 |
| 20260504025521 | 12 | 158 | 1.6 | 8.0 | 0.00 | 0.03 | 0.03 | 47 | 1015.2 |
| 20260504024518 | 11 | 148 | 0.0 | 8.0 | 0.00 | 0.03 | 0.03 | 47 | 1015.1 |
| 20260504023518 | 12 | 335 | 0.0 | 4.8 | 0.00 | 0.03 | 0.03 | 48 | 1015.1 |
| 20260504022518 | 12 | 321 | 0.0 | 0.0 | 0.00 | 0.03 | 0.03 | 46 | 1015.0 |
| 20260504021519 | 11 | 152 | 4.8 | 8.0 | 0.00 | 0.03 | 0.03 | 49 | 1015.0 |
| 20260504020518 | 13 | 0.0 | 0.0 | 0.00 | 0.03 | 0.03 | 44 | 1015.0 | |
| 20260504015519 | 13 | 265 | 0.0 | 3.2 | 0.00 | 0.03 | 0.03 | 43 | 1014.9 |
| 20260504014519 | 13 | 147 | 0.0 | 3.2 | 0.00 | 0.03 | 0.03 | 41 | 1014.9 |
| 20260504013519 | 13 | 166 | 3.2 | 4.8 | 0.00 | 0.03 | 0.03 | 43 | 1014.9 |
| 20260504012539 | 13 | 174 | 0.0 | 3.2 | 0.00 | 0.03 | 0.03 | 40 | 1014.7 |
| 20260504011520 | 13 | 335 | 0.0 | 0.0 | 0.00 | 0.03 | 0.03 | 39 | 1014.7 |
| 20260504010519 | 14 | 0.0 | 0.0 | 0.00 | 0.03 | 0.03 | 36 | 1014.6 | |
| 20260504005521 | 15 | 263 | 0.0 | 1.6 | 0.00 | 0.03 | 0.03 | 34 | 1014.6 |
| 20260504004516 | 15 | 249 | 1.6 | 3.2 | 0.00 | 0.03 | 0.03 | 33 | 1014.5 |
| 20260504003520 | 15 | 249 | 1.6 | 4.8 | 0.00 | 0.03 | 0.03 | 32 | 1014.4 |
| 20260504002521 | 15 | 235 | 3.2 | 6.4 | 0.00 | 0.03 | 0.03 | 31 | 1014.3 |
| 20260504001520 | 15 | 233 | 1.6 | 4.8 | 0.00 | 0.03 | 0.03 | 30 | 1014.2 |
| 20260504000520 | 16 | 234 | 1.6 | 6.4 | 0.00 | 0.03 | 0.03 | 30 | 1014.1 |
| 20260503235518 | 16 | 241 | 4.8 | 8.0 | 0.00 | 0.03 | 0.03 | 29 | 1014.1 |
| 20260503234517 | 16 | 250 | 3.2 | 9.7 | 0.00 | 0.03 | 0.03 | 28 | 1014.0 |
| 20260503233517 | 16 | 276 | 3.2 | 6.4 | 0.00 | 0.03 | 0.03 | 28 | 1014.0 |
| 20260503232601 | 16 | 259 | 8.0 | 12.9 | 0.00 | 0.03 | 0.03 | 28 | 1013.8 |
| 20260503231538 | 16 | 265 | 3.2 | 11.3 | 0.00 | 0.03 | 0.03 | 27 | 1013.8 |
| 20260503230518 | 16 | 277 | 8.0 | 17.7 | 0.00 | 0.03 | 0.03 | 28 | 1013.7 |
| 20260503225518 | 16 | 260 | 9.7 | 16.1 | 0.00 | 0.03 | 0.03 | 28 | 1013.8 |
| 20260503224518 | 16 | 262 | 8.0 | 16.1 | 0.00 | 0.03 | 0.03 | 27 | 1013.8 |
| 20260503223519 | 16 | 260 | 9.7 | 17.7 | 0.00 | 0.03 | 0.03 | 28 | 1013.8 |
| 20260503222520 | 16 | 257 | 11.3 | 20.9 | 0.00 | 0.03 | 0.03 | 27 | 1013.9 |
| 20260503220520 | 16 | 269 | 14.5 | 27.4 | 0.00 | 0.03 | 0.03 | 28 | 1013.9 |
| 20260503215519 | 16 | 276 | 11.3 | 20.9 | 0.00 | 0.03 | 0.03 | 28 | 1014.0 |
| 20260503214519 | 16 | 286 | 12.9 | 22.5 | 0.00 | 0.03 | 0.03 | 28 | 1014.0 |
| 20260503213521 | 16 | 263 | 14.5 | 27.4 | 0.00 | 0.03 | 0.03 | 29 | 1013.9 |
| 20260503212519 | 16 | 253 | 9.7 | 20.9 | 0.00 | 0.03 | 0.03 | 29 | 1013.9 |
| 20260503211517 | 15 | 260 | 8.0 | 19.3 | 0.00 | 0.03 | 0.03 | 29 | 1013.9 |
| 20260503210520 | 15 | 273 | 16.1 | 22.5 | 0.00 | 0.03 | 0.03 | 29 | 1014.0 |
| 20260503205520 | 15 | 270 | 9.7 | 20.9 | 0.00 | 0.03 | 0.03 | 30 | 1014.0 |
| 20260503204520 | 15 | 274 | 12.9 | 32.2 | 0.00 | 0.03 | 0.03 | 31 | 1013.9 |
| 20260503203520 | 15 | 282 | 12.9 | 20.9 | 0.00 | 0.03 | 0.03 | 30 | 1014.1 |
| 20260503202537 | 15 | 278 | 12.9 | 27.4 | 0.00 | 0.03 | 0.03 | 30 | 1014.3 |
| 20260503201517 | 15 | 266 | 19.3 | 38.6 | 0.00 | 0.03 | 0.03 | 31 | 1014.3 |
| 20260503200518 | 15 | 288 | 12.9 | 19.3 | 0.00 | 0.03 | 0.03 | 32 | 1014.6 |
| 20260503195521 | 15 | 259 | 17.7 | 37.0 | 0.00 | 0.03 | 0.03 | 31 | 1014.5 |
| 20260503194521 | 14 | 272 | 17.7 | 37.0 | 0.00 | 0.03 | 0.03 | 32 | 1014.7 |
| 20260503193538 | 14 | 272 | 16.1 | 37.0 | 0.00 | 0.03 | 0.03 | 33 | 1014.9 |
| 20260503192518 | 15 | 279 | 16.1 | 27.4 | 0.00 | 0.03 | 0.03 | 33 | 1015.0 |
| 20260503191519 | 15 | 280 | 11.3 | 22.5 | 0.00 | 0.03 | 0.03 | 33 | 1015.1 |
| 20260503190519 | 14 | 285 | 6.4 | 17.7 | 0.00 | 0.03 | 0.03 | 34 | 1015.4 |
| 20260503185539 | 13 | 272 | 12.9 | 27.4 | 0.00 | 0.03 | 0.03 | 34 | 1015.4 |
| 20260503184519 | 13 | 271 | 12.9 | 24.1 | 0.00 | 0.03 | 0.03 | 33 | 1015.5 |
| 20260503183539 | 13 | 276 | 16.1 | 30.6 | 0.00 | 0.03 | 0.03 | 34 | 1015.6 |
| 20260503182519 | 13 | 257 | 12.9 | 24.1 | 0.00 | 0.03 | 0.03 | 34 | 1015.6 |
| 20260503181519 | 13 | 293 | 11.3 | 25.7 | 0.00 | 0.03 | 0.03 | 35 | 1015.8 |
| 20260503180520 | 13 | 306 | 9.7 | 17.7 | 0.00 | 0.03 | 0.03 | 36 | 1015.9 |
| 20260503175559 | 12 | 268 | 12.9 | 27.4 | 0.00 | 0.03 | 0.03 | 36 | 1015.9 |
| 20260503174520 | 12 | 291 | 16.1 | 40.2 | 0.00 | 0.03 | 0.03 | 36 | 1015.9 |
| 20260503173520 | 12 | 287 | 16.1 | 25.7 | 0.00 | 0.03 | 0.03 | 36 | 1016.1 |
| 20260503172540 | 12 | 318 | 16.1 | 27.4 | 0.00 | 0.03 | 0.03 | 37 | 1016.0 |
| 20260503171520 | 12 | 288 | 17.7 | 29.0 | 0.00 | 0.03 | 0.03 | 36 | 1016.1 |
| 20260503170517 | 12 | 310 | 19.3 | 32.2 | 0.00 | 0.03 | 0.03 | 36 | 1016.1 |
| 20260503150519 | 10 | 317 | 11.3 | 24.1 | 0.00 | 0.00 | 0.00 | 41 | 1016.8 |